Погода в Щучинске

Погода в Щучинске : погода сейчас, прогноз погоды и архив. Всё, что Вы хотите узнать о погоде в Щучинске!

Поиск расширенной информации на нашем сайте:

Другие новости

Новости СМИ2

Главная страница сайта

Новости сайта

03.07.2017

Напоминаем, что на нашем специализированном сайте Метеоцентр.Азия вы можете получить высокодетализированные автоматические прогнозы погоды по пунктам России, СНГ и мира в авиационном формате (включающие направление и скорость ветра, видимость, явления погоды, количество и форму облачности, нижнюю и верхнюю границу облачности).


Погода в Щучинске - сегодня

Время (UTC), дата Ветер
(°,м/с) 
Видим.   Явления Облачность Т
(°С)
Тd
(°С)
f(%) Тe
(°С)
Pmin
(гПа)
dP
(гПа)
Po
(мм)
O2
(г/м3)
Тmin Tmax R s Состояние
почвы
00 14.06.18 тихо ()   20000 м    4/0 
+10.2 +2.1 57 +10  1010.2  0.5  722  280           
06 14.06.18 260 (З) 20000 м    10/3 1500 м верхняя 
[Sc|Cs]
+17.6 +5.4 45 +18  1011.3  -0.2  724  273  +2.5         
09 14.06.18 250 (З) 20000 м    10/4 1000 м средняя, верхняя 
[Cu med, cong|Ac As|Cc]
+21 +7.2 41 +21  1010.1  -0.6  724  270           
15 14.06.18 250 (З) 20000 м    8/8 1000 м верхняя 
[Sc|Ci fib]
+19.7 -3.4 21 +20  1009.6  723  272    +23.2       
18 14.06.18 210 (ЮЗ) н/о    10/10 1000 м 
[Sc]
+16.7 +3 40 +18  1009.8  -0.2  723  274    +23.2       
21 14.06.18 220 (ЮЗ) н/о    10/10 1000 м 
[Sc]
+15.5 +2.6 42 +16  1009  -1  722  275           
00 15.06.18 250 (З) 20000 м    10/10 600 м кучево-дожд. 
[Cb cap]
+15.1 +5.7 53 +15  1008.5  -0.5  722  275           
06 15.06.18 270 (З) 20000 м    10/8 600 м кучево-дожд., верхняя 
[Cb cap|Ci sp]
+21.8 +8.9 44 +22  1006  -0.3  721  267  +15.1         
09 15.06.18 330 (СЗ) 20000 м  гроза без осадков{ливн. осадки}  9/9 600 м кучево-дожд. 
[Cb cap]
+22.4 +8.3 40 +22  1006  0.1  721  267           
21 15.06.18 тихо ()   н/о    6/6 600 м 
[Sc]
+9.8 +4.3 69 +10  1009.8  -0.1  722  280           
00 16.06.18 310 (СЗ) 20000 м    9/8 600 м средняя, верхняя 
[Sc|Ac As|Ci sp]
+10.2 +6.4 77 +11  1010.1  0.4  723  280           
06 16.06.18 250 (З) 20000 м    10/4 1000 м средняя, верхняя 
[Cu hum|Ac lent|Ci sp]
+17.1 -6.8 19 +18  1009.3  -0.3  723  275  +7.2         
09 16.06.18 200 (Ю) 20000 м    10/8 600 м кучево-дожд., верхняя 
[Cb cap|Ci sp]
+17.7 +8.3 54 +18  1008  -1  722  272           
12 16.06.18 200 (Ю) 20000 м    10/8 600 м кучево-дожд., верхняя 
[Cb cap|Ci sp]
+16.4 +9 62 +17  1007.6  -0.6  722  273           
21 16.06.18 150 (ЮВ) н/о  дымка  10/0 верхняя 
[Ci fib]
+10.1 +8.9 92 +12  1006.1  -1.2  720  278           
06 17.06.18 320 (СЗ) 20000 м    10/4 1500 м средняя, верхняя 
[Cu hum|Ac As|Ci fib]
+14.3 +4.1 50 +14  1004.5  0.3  719  275  +9.4         
09 17.06.18 280 (З) 20000 м    8/6 1500 м верхняя 
[Cu med, cong|Ci sp]
+17.2 +1.3 34 +17  1003.9  -0.2  719  272           
12 17.06.18 330 (СЗ) 20000 м    8/8 1000 м верхняя 
[Cu med, cong|Ci fib]
+18.3 +0.5 30 +19  1003.4  -0.3  719  271           
15 17.06.18 340 (С) 20000 м    8/8 1500 м 
[Sc diur, vesp]
+15.7 +0.1 35 +16  1004.2  0.4  719  274    +19.1       
18 17.06.18 тихо ()   н/о    ясно 
+6.2 +2.4 77 +6  1006  0.2  719  283    +19.1       
21 17.06.18 тихо ()   н/о    ясно 
+3.3 +1 85 +3  1005.9  -0.6  719  286           
00 18.06.18 тихо ()   20000 м    6/6 1500 м 
[Sc]
+4.4 +1.9 84 +4  1005.3  -0.4  719  285           
06 18.06.18 280 (З) 20000 м    4/4 1500 м 
[Cu hum]
+16.5 +0.5 34 +18  1002.1  -1.1  718  273  +1.5         
09 18.06.18 280 (З) 20000 м    8/8 1500 м 
[Cu hum]
+19.3 +0.7 29 +20  1000.6  -1  717  270           
12 18.06.18 180 (Ю) 20000 м    8/8 1500 м верхняя 
[Cu hum|Ci fib]
+20.1 +1.8 30 +20  999.7  -0.8  716  268           
Время (UTC), дата Ветер
(°,м/с) 
Видим.   Явления Облачность Т
(°С)
Тd
(°С)
f(%) Тe
(°С)
Pmin
(гПа)
dP
(гПа)
Po
(мм)
O2
(г/м3)
Тmin Tmax R s Состояние
почвы

Для получения пояснительной информации подведите курсор к названию столбца.

ПОГОДА в Щучинске - архив

Всё, что Вы хотите узнать о погоде в Щучинске - удобно и подробно!

Выберите нужную дату (начиная с 1 января 2015* года) и нажмите кнопку "Найти".
Будут отображены архивные сводки погоды по пункту Щучинск, начиная с указанной даты.


Отображать данные в формате CSV (для использования в таблицах Excel)


Внимание! Наш архив погоды предназначен исключительно для личного некоммерческого использования в познавательных целях. Если Вам необходимы официальные справки о состоянии погоды (для производственных, юридических, коммерческих и т.п. целей), обращайтесь в органы Росгидромета.

*Примечание: данная дата относится к архиву по метеостанциям СССР (Россия, СНГ, Балтия).
Архив по метеостанциям Зарубежной Европы и Азии (кроме Китая) хранится 10 дней, по другим регионам земного шара (Китай, Африка, Америка, Австралия, Океания) - 1 день.

Щучинск - район местоположения метеостанции


Название, широта, долгота, высота метеостанции:
Щучинск 52.9°ш. 70.2°д. 395 м над ур. моря [Казахстан]

Дополнительная информация

В oтличие oт бoльшинства пoгoдных сайтoв мы публикуем пoдрoбную метеoинфoрмацию в детальнoм прoфессиoнальнoм фoрмате.

Характеристики температуры и влажнoсти вoздуха измеряются на высoте 2 м в тени вдали oт зданий и деревьев.
Скoрoсть ветра измеряется на высoте 10 м (на урoвне рoста челoвека скoрoсть ветра ниже в 1.5-2 раза). Если метеoстанция нахoдится в гoрoде или в лесу, тo скoрoсть ветра занижена на 2-4 м/с пo сравнению с oткрытым местoм. Скoрoсть ветра над акватoриями крупных рек и oзёр, а также на вершинах хoлмoв на 2-5 м/с выше, чем в oбычных услoвиях.
Атмoсфернoе давление в разных тoчках местнoсти мoжет значительнo oтличаться oт давления на метеoстанции, в зависимoсти oт услoвий рельефа (при пoдъёме на 10 м давление пoнижается примернo на 1 мм рт.ст.).